This is the latest recevied weather packets stored in our database for station/object K1RFS. If no packets are shown the sender has not sent any weather packets the latest 10 day(s).
| Time | Temp. | Humidity | Pressure | Rain* | Wind** | Luminosity | Snow |
|---|---|---|---|---|---|---|---|
| 1788388357 | 29.44° C | 14% | 998.9 hPa | 0 mm | - | 221 W/m² | - |
| 1788388057 | 30° C | 14% | 998.8 hPa | 0 mm | - | 221 W/m² | - |
| 1788387757 | 30° C | 13% | 999 hPa | 0 mm | - | 294 W/m² | - |
| 1788387456 | 30.56° C | 13% | 999 hPa | 0 mm | - | 374 W/m² | - |
| 1788387156 | 30° C | 14% | 998.9 hPa | 0 mm | - | 520 W/m² | - |
| 1788386846 | 30° C | 14% | 999.1 hPa | 0 mm | - | 504 W/m² | - |
| 1788386545 | 28.89° C | 16% | 999.1 hPa | 0 mm | - | 566 W/m² | - |
| 1788386241 | 28.33° C | 16% | 999.2 hPa | 0 mm | - | 383 W/m² | - |
| 1788385936 | 28.89° C | 16% | 999.3 hPa | 0 mm | - | 269 W/m² | - |
| 1788385632 | 28.33° C | 17% | 999 hPa | 0 mm | - | 317 W/m² | - |
| 1788385330 | 28.33° C | 17% | 999 hPa | 0 mm | - | 314 W/m² | - |
| 1788385026 | 28.33° C | 19% | 999.1 hPa | 0 mm | - | 233 W/m² | - |
| 1788384721 | 28.89° C | 18% | 999.2 hPa | 0 mm | - | 251 W/m² | - |
| 1788384415 | 28.89° C | 17% | 999.4 hPa | 0 mm | - | 232 W/m² | - |
| 1788384112 | 30° C | 17% | 999.2 hPa | 0 mm | - | 381 W/m² | - |
| 1788383808 | 29.44° C | 16% | 999.3 hPa | 0 mm | - | 578 W/m² | - |
| 1788383508 | 29.44° C | 17% | 999.6 hPa | 0 mm | - | 277 W/m² | - |
| 1788383208 | 29.44° C | 16% | 999.6 hPa | 0 mm | - | 557 W/m² | - |
| 1788382903 | 28.89° C | 17% | 999.4 hPa | 0 mm | - | 585 W/m² | - |
| 1788382601 | 28.89° C | 17% | 999.6 hPa | 0 mm | - | 521 W/m² | - |
| 1788382297 | 29.44° C | 15% | 999.7 hPa | 0 mm | - | 467 W/m² | - |
| 1788381991 | 29.44° C | 17% | 999.3 hPa | 0 mm | - | 578 W/m² | - |
| 1788381686 | 29.44° C | 18% | 999.3 hPa | 0 mm | - | 560 W/m² | - |
| 1788381382 | 30° C | 19% | 999.4 hPa | 0 mm | - | 572 W/m² | - |
| 1788381081 | 28.89° C | 20% | 999.6 hPa | 0 mm | - | 570 W/m² | - |
* Rain latest hour (hover to see other rain measurements)
** Current wind speed in m/s (hover to see current wind gust speed)